SCP
-0 0 0 0 0 0 0 0 0 0 0 0 0 0 0 0 0 0 0 0 0 0 0 0 0 0 0 0 0 0 0 0 0 0 0 0 0 0 0 0 0 0 0
0 0 0 0 0 0 0 0 0 0 0 0 0 0 0 0 0 0 0 0 0 0 0 0 0 0 0 0 0 0 0 0 0 0 0 0 0 0 0 0 0 0 0
0 0 0 0 0 0 0 0 0 0 0 0 0 0 0 0 0 0 0 0 0 0 0 0 0 0 0 0 0 0 0 0 0 0 0 0 0 0 0 0 0 0 0
0 0 0 0 0 0 0 0 0 0 0 0 0 0 0 0 0 0 0 0 0 0 0 0 0 0 0 0 0 0 0 0 0 0 0 0 0 0 0 0 0 0 0
0 0 0 0 0 0 0 0 0 0 0 0 0 0 0 0 0 0 0 0 0 0 0 0 0 0 0 0 0 0 0 0 0 0 0 0 0 0 0 0 0 0 0
0 0 0 0 0 0 0 0 0 0 0 0 0 0 0 0 0 0 0 0 0 0 0 0 0 0 0 0 0 0 0 0 0 0 0 0 0 0 0 0 0 0 0
0 0 0 0 0 0 0 0 0 0 0 0 0 0 0 0 0 0 0 0 0 0 0 0 0 0 0 0 0 0 0 0 0 0 0 0 0 0 0 0 0 0 0
0 0 0 0 0 0 0 0 0 0 0 0 0 0 0 0 0 0 0 0 0 0 0 0 0 0 0 0 0 0 0 0 0 0 0 0 0 0 0 0 0 0 0
0 0 0 0 0 0 0 0 0 0 0 0 0 0 0 0 0 0 0 0 0 0 0 0 0 0 0 0 0 0 0 0 0 0 0 0 0 0 0 0 0 0 0
0 0 0 0 0 0 0 0 0 0 0 0 0 0 0 0 0 0 0 0 0 0 0 0 0 0 0 0 0 0 0 0 0 0 0 0 0 0 0 0 0 0 0
0 0 0 0 0 0 0 0 0 0 0 0 0 0 0 0 0 0 0 0 0 0 0 0 0 0 0 0 0 0 0 0 0 0 0 0 0 0 0 0 0 0 0
0 0 0 0 0 0 0 0 0 0 0 0 0 0 0 0 0 0 0 0 0 0 0 0 0 0 0 0 0 0 0 0 0 0 0 0 0 0 0 0 0 0 0
0 0 0 0 0 0 0 0 0 0 0 0 0 0 0 0 0 0 0 0 0 0 0 0 0 0 0 0 0 0 0 0 0 0 -0 -0 0 0 0 0 0 0 0
0 0 0 0 0 0 0 0 0 0 0 0 0 0 0 0 0 0 0 0 0 0 0 0 0 0 0 0 0 0 0 0 0 0 -0 -0 0 0 0 0 0 0 0
0 0 0 0 0 0 0 0 0 0 0 0 0 0 0 0 0 0 0 0 0 0 0 0 0 0 0 0 0 0 0 0 0 0 -0 0 0 0 0 0 0 0 0
0 0 0 0 0 0 0 0 0 0 -0 0 0 0 0 0 0 0 0 0 0 0 0 0 0 0 0 0 0 0 0 0 0 0 0 0 0 0 0 0 0 0 0
0 0 0 0 0 0 0 0 0 0 0 0 0 0 0 0 0 0 0 0 0 0 -0 0 0 0 0 0 0 -0 0 0 0 0 0 0 0 0 0 0 0 0 0
0 0 0 0 0 0 0 0 0 0 0 0 0 0 0 0 0 0 0 0 0 -0 -0 0 0 0 0 0 0 0 0 0 0 0 0 0 0 0 0 0 0 0 0
0 0 0 0 0 0 0 0 0 0 0 0 0 0 0 0 0 0 0 0 0 -0 -0 -0 0 0 0 0 0 0 0 0 0 0 0 0 0 0 0 0 0 0 0
0 0 0 0 0 0 0 0 0 0 0 0 0 0 0 0 0 0 0 0 0 0 0 0 -0 0 0 0 0 0 0 0 0 0 0 0 0 0 0 0 0 0 0
0 0 0 0 0 0 0 0 0 0 0 0 0 0 0 0 0 0 0 0 0 0 0 0 0 0 0 0 0 0 0 0 0 0 0 0 0 0 0 0 0 0 0
0 0 0 0 0 0 0 0 0 0 0 0 0 0 0 0 0 0 0 0 0 0 0 0 0 0 0 0 0 0 0 0 0 0 0 0 0 0 0 0 0 0 0
0 0 0 0 0 0 0 0 0 0 0 0 0 0 0 0 0 0 0 0 0 0 0 0 0 0 0 0 0 0 0 0 0 0 0 0 0 0 0 0 0 0 0
0 0 0 0 0 0 0 0 0 0 -0 0 0 0 0 0 0 0 0 0 0 0 0 0 0 0 0 0 0 0 0 0 0 0 0 0 0 0 0 0 0 0 0
0 0 0 0 0 0 0 0 0 0 -0 -0 0 0 0 0 0 0 0 0 0 0 0 0 0 0 0 0 0 0 0 0 0 0 0 0 0 0 0 0 0 0 0
0 0 0 0 0 0 0 0 0 0 -0 0 0 0 0 0 0 0 0 0 0 0 0 0 0 0 0 0 0 0 0 0 0 0 0 0 0 0 0 0 0 0 0
Wind_Speed_500mb
40 49 66 69 70 72 76 74 65 62 50 49 44 39 35 31 32 35 43 49 63 65 68 69 72 72 72 71 68 64 55 46 46 51 48 47 27 34 19 34 42 43 42
24 38 46 60 71 70 71 70 62 51 48 43 39 32 26 30 37 44 55 66 64 65 66 68 69 68 67 63 57 54 55 50 47 45 51 27 39 10 45 44 40 36 42
23 41 52 53 63 70 68 64 57 49 46 37 27 20 23 33 42 53 64 60 60 61 62 62 63 62 58 53 53 50 47 50 47 38 32 19 13 54 18 65 47 44 46
26 29 38 47 52 55 54 51 53 51 41 31 18 13 25 41 59 62 57 56 56 55 56 57 56 55 54 46 46 43 43 43 49 48 47 46 53 38 32 46 64 50 40
3 15 25 35 39 40 42 42 42 39 29 15 14 25 47 80 58 53 48 47 46 47 49 49 49 50 50 46 44 44 44 43 46 47 50 53 56 58 49 53 70 63 50
9 10 17 25 32 36 35 32 29 25 18 17 28 59 60 40 42 42 43 42 40 43 43 44 45 49 48 49 46 43 43 44 44 46 48 48 50 59 57 59 71 76 68
10 16 23 33 40 42 41 37 28 26 26 15 29 25 29 31 35 36 37 37 38 38 40 40 42 47 44 43 43 45 45 45 46 46 46 46 49 49 53 58 68 65 67
14 23 27 35 39 37 32 24 13 2 4 8 16 22 23 28 28 29 32 32 31 31 32 37 39 43 44 43 41 43 45 48 50 53 46 46 47 45 46 49 53 64 61
19 24 33 34 33 25 19 12 6 3 11 17 20 21 23 22 22 26 29 30 30 31 32 33 34 39 41 44 44 43 46 47 50 53 45 42 46 48 45 44 42 41 44
23 29 32 33 25 18 12 5 3 11 17 18 18 19 20 22 24 27 30 30 31 32 31 32 32 32 38 42 40 43 45 46 48 52 53 44 44 47 45 42 39 35 37
26 30 33 27 20 13 4 9 12 10 13 17 18 19 17 23 27 30 30 35 35 33 28 29 32 32 32 37 40 42 41 44 49 54 55 55 48 47 51 42 35 34 37
29 30 30 26 17 5 3 4 8 13 14 15 14 15 21 26 27 30 38 41 38 32 29 26 30 34 35 34 37 42 43 44 47 52 54 58 55 55 46 44 38 35 38
33 32 30 23 12 4 4 5 10 12 13 16 18 22 23 23 28 37 45 43 34 29 22 24 29 34 38 42 38 36 44 44 43 44 51 58 58 50 50 44 42 39 35
33 31 30 23 13 6 0 3 5 9 16 17 18 20 21 24 31 41 48 43 33 32 28 27 29 35 41 45 42 36 35 45 42 39 50 55 54 52 39 41 42 40 39
35 33 31 24 12 6 2 3 9 15 14 13 15 18 21 25 29 37 46 47 42 36 31 30 34 40 43 38 41 34 29 37 40 45 52 49 45 41 42 31 34 41 44
36 34 31 23 16 12 6 9 6 11 12 11 13 19 22 24 29 34 42 46 50 46 38 37 38 35 33 37 34 30 28 34 35 41 47 48 45 47 37 31 27 32 42
35 37 34 27 19 12 10 3 8 7 9 10 14 19 22 24 28 33 37 45 52 55 44 34 32 35 38 39 36 29 29 30 36 45 47 47 43 47 43 36 31 23 26
32 35 36 27 15 10 5 3 4 5 8 10 14 18 22 26 28 31 37 42 48 54 51 40 36 34 32 38 37 33 28 28 37 41 41 43 41 40 42 43 37 32 28
27 33 29 20 16 9 2 1 0 6 9 10 14 17 22 26 29 29 36 39 42 47 49 47 38 34 33 41 42 41 34 32 33 36 38 40 39 39 37 35 36 37 30
26 34 29 21 13 3 5 3 4 8 10 9 13 17 21 25 28 30 36 37 36 39 44 45 38 33 38 41 41 41 38 35 35 33 37 38 39 39 38 37 34 35 34
32 32 26 15 11 9 6 2 6 9 11 9 13 18 23 24 26 32 35 35 33 32 40 42 35 35 39 41 41 41 42 43 39 34 35 36 44 44 41 39 36 32 31
36 29 19 19 15 10 7 6 11 13 11 8 14 18 22 25 28 33 32 31 34 32 35 36 31 36 43 41 42 45 47 43 38 36 37 38 48 49 47 38 36 33 29
32 27 22 19 14 8 4 8 12 16 10 9 16 18 21 25 29 33 34 33 33 31 27 29 34 39 49 50 47 49 57 47 45 39 45 46 47 46 37 40 35 29 27
28 25 24 17 8 6 5 6 12 16 12 14 19 21 25 24 28 32 36 35 35 32 28 30 37 41 44 42 44 46 51 50 48 53 48 41 38 36 34 31 31 25 26
28 25 18 12 7 4 5 4 8 14 16 18 25 21 25 28 31 30 33 36 33 29 30 33 40 41 45 50 52 53 58 60 59 53 43 40 39 38 32 32 29 28 29
30 24 18 10 3 2 5 5 8 13 18 23 21 26 28 31 33 33 32 33 35 30 29 35 45 46 46 49 49 56 61 54 40 43 35 36 40 37 42 28 29 27 31
Wind_Direction_500mb
231 235 237 239 241 243 244 246 242 241 238 226 224 232 243 258 274 292 301 307 310 306 308 310 311 313 314 314 314 316 317 316 316 316 314 318 311 308 306 320 304 299 300
250 247 248 241 244 245 246 244 238 227 221 219 227 232 249 272 286 294 311 313 311 310 314 317 317 318 319 320 320 321 320 316 321 315 319 320 324 282 312 324 314 302 304
269 261 253 245 242 242 242 240 225 218 216 217 221 236 264 278 293 303 309 309 314 318 320 324 326 327 329 325 326 328 331 330 332 325 307 313 287 310 326 324 316 304 304
280 251 245 237 236 235 233 231 220 217 211 205 201 242 283 311 311 310 310 315 319 324 329 333 336 337 333 329 337 341 338 332 327 330 326 308 300 299 304 309 317 313 309
81 195 203 218 219 214 207 202 200 192 190 193 253 283 313 309 300 305 312 318 324 331 337 341 342 341 340 341 341 340 336 332 328 325 321 317 315 311 291 294 310 312 307
74 162 175 167 158 155 157 161 169 172 190 232 275 272 282 286 302 311 319 325 334 339 347 349 346 348 353 351 347 345 345 341 334 330 324 321 314 311 303 293 302 309 317
87 123 143 146 145 147 149 151 161 187 200 253 274 293 289 304 315 318 329 335 339 344 356 349 353 354 357 354 358 358 353 348 342 338 333 326 321 320 315 310 307 304 313
118 131 136 148 151 151 157 165 170 242 323 298 303 304 319 317 319 331 337 335 339 344 339 349 355 352 357 354 354 358 357 358 354 347 340 334 332 324 323 316 310 307 308
144 147 154 153 155 158 156 144 119 360 334 337 336 327 319 335 338 335 335 333 328 323 329 339 351 351 354 358 359 2 0 358 359 356 350 346 342 338 325 323 314 305 297
157 156 157 165 162 154 150 147 34 5 343 333 332 341 351 346 341 342 333 326 324 320 319 331 338 351 353 353 353 1 3 5 7 3 3 351 346 347 344 326 319 314 294
170 167 172 167 163 161 130 338 349 357 354 355 2 358 343 347 347 342 335 324 322 321 317 327 332 340 349 347 352 355 358 359 1 5 7 4 357 353 356 347 331 325 316
176 178 175 176 172 174 61 341 356 13 4 2 356 353 358 359 358 349 340 334 324 314 317 325 327 330 334 335 345 349 350 355 357 1 359 0 2 6 357 352 353 334 323
177 176 182 183 187 195 296 357 14 357 359 3 1 357 1 4 2 357 353 346 344 347 332 325 322 325 329 331 329 341 344 348 351 356 353 352 354 358 4 4 2 353 351
183 182 188 191 196 234 225 15 10 16 358 351 355 354 355 358 1 2 358 356 352 352 343 333 325 326 326 328 325 326 337 339 345 350 352 353 348 349 349 360 4 7 7
186 189 191 192 200 185 172 16 360 349 332 342 352 345 346 348 354 1 5 8 7 360 352 336 326 325 330 337 330 328 332 336 338 342 348 346 348 348 357 350 359 7 8
192 189 192 197 195 199 224 283 332 335 359 342 344 343 341 344 350 355 3 5 9 2 346 332 332 341 350 346 346 342 344 339 335 340 341 345 347 352 354 4 6 7 2
191 189 196 201 205 231 258 302 331 18 6 5 357 340 342 346 346 352 352 360 5 7 5 0 358 355 354 349 346 333 334 343 341 338 338 339 343 344 348 355 358 357 1
189 188 197 198 208 211 292 345 57 16 6 7 359 350 356 349 345 346 349 355 1 6 7 4 359 358 358 355 356 350 342 344 341 342 339 341 342 342 341 342 347 350 349
187 192 191 189 186 173 177 307 15 351 352 7 359 351 345 345 347 345 348 349 353 1 6 4 355 355 355 355 356 0 4 349 343 341 339 337 340 341 342 340 337 331 338
182 181 177 176 169 208 136 76 347 352 349 1 2 348 342 344 347 345 343 339 341 351 359 0 4 2 5 358 357 359 357 350 343 342 336 338 337 336 335 334 333 334 335
168 168 165 169 166 141 103 38 12 357 353 6 357 350 347 346 345 348 338 333 330 335 347 354 359 358 360 359 355 353 350 344 341 339 338 336 339 338 335 329 326 326 323
162 163 169 159 147 115 81 46 13 358 356 359 353 346 352 349 354 355 347 339 335 330 336 345 349 353 357 353 349 350 349 343 341 334 332 332 338 341 337 328 321 316 316
164 164 164 151 132 117 75 45 22 4 5 357 352 353 348 349 347 347 347 348 344 336 327 333 339 340 349 349 345 342 350 347 341 335 328 326 329 337 341 335 334 328 324
167 162 153 146 132 93 41 41 24 16 15 350 345 343 355 357 353 349 340 334 334 333 327 329 334 334 337 339 339 338 337 335 331 327 326 328 334 330 334 343 340 343 336
161 153 151 148 130 68 350 4 3 7 356 346 347 349 357 358 356 343 348 349 342 332 327 330 333 334 333 335 335 335 331 325 323 323 331 337 338 338 335 337 342 343 340
161 164 163 153 153 330 329 339 342 351 348 354 0 359 356 354 348 344 342 346 348 338 338 338 336 336 333 336 333 327 325 332 337 342 343 338 336 339 338 336 342 345 345
Wind_Speed_850mb
40 49 66 69 70 72 76 74 65 62 50 49 44 39 35 31 32 35 43 49 63 65 68 69 72 72 72 71 68 64 55 46 46 51 48 47 27 34 19 34 42 43 42
24 38 46 60 71 70 71 70 62 51 48 43 39 32 26 30 37 44 55 66 64 65 66 68 69 68 67 63 57 54 55 50 47 45 51 27 39 10 45 44 40 36 42
23 41 52 53 63 70 68 64 57 49 46 37 27 20 23 33 42 53 64 60 60 61 62 62 63 62 58 53 53 50 47 50 47 38 32 19 13 54 18 65 47 44 46
26 29 38 47 52 55 54 51 53 51 41 31 18 13 25 41 59 62 57 56 56 55 56 57 56 55 54 46 46 43 43 43 49 48 47 46 53 38 32 46 64 50 40
3 15 25 35 39 40 42 42 42 39 29 15 14 25 47 80 58 53 48 47 46 47 49 49 49 50 50 46 44 44 44 43 46 47 50 53 56 58 49 53 70 63 50
9 10 17 25 32 36 35 32 29 25 18 17 28 59 60 40 42 42 43 42 40 43 43 44 45 49 48 49 46 43 43 44 44 46 48 48 50 59 57 59 71 76 68
10 16 23 33 40 42 41 37 28 26 26 15 29 25 29 31 35 36 37 37 38 38 40 40 42 47 44 43 43 45 45 45 46 46 46 46 49 49 53 58 68 65 67
14 23 27 35 39 37 32 24 13 2 4 8 16 22 23 28 28 29 32 32 31 31 32 37 39 43 44 43 41 43 45 48 50 53 46 46 47 45 46 49 53 64 61
19 24 33 34 33 25 19 12 6 3 11 17 20 21 23 22 22 26 29 30 30 31 32 33 34 39 41 44 44 43 46 47 50 53 45 42 46 48 45 44 42 41 44
23 29 32 33 25 18 12 5 3 11 17 18 18 19 20 22 24 27 30 30 31 32 31 32 32 32 38 42 40 43 45 46 48 52 53 44 44 47 45 42 39 35 37
26 30 33 27 20 13 4 9 12 10 13 17 18 19 17 23 27 30 30 35 35 33 28 29 32 32 32 37 40 42 41 44 49 54 55 55 48 47 51 42 35 34 37
29 30 30 26 17 5 3 4 8 13 14 15 14 15 21 26 27 30 38 41 38 32 29 26 30 34 35 34 37 42 43 44 47 52 54 58 55 55 46 44 38 35 38
33 32 30 23 12 4 4 5 10 12 13 16 18 22 23 23 28 37 45 43 34 29 22 24 29 34 38 42 38 36 44 44 43 44 51 58 58 50 50 44 42 39 35
33 31 30 23 13 6 0 3 5 9 16 17 18 20 21 24 31 41 48 43 33 32 28 27 29 35 41 45 42 36 35 45 42 39 50 55 54 52 39 41 42 40 39
35 33 31 24 12 6 2 3 9 15 14 13 15 18 21 25 29 37 46 47 42 36 31 30 34 40 43 38 41 34 29 37 40 45 52 49 45 41 42 31 34 41 44
36 34 31 23 16 12 6 9 6 11 12 11 13 19 22 24 29 34 42 46 50 46 38 37 38 35 33 37 34 30 28 34 35 41 47 48 45 47 37 31 27 32 42
35 37 34 27 19 12 10 3 8 7 9 10 14 19 22 24 28 33 37 45 52 55 44 34 32 35 38 39 36 29 29 30 36 45 47 47 43 47 43 36 31 23 26
32 35 36 27 15 10 5 3 4 5 8 10 14 18 22 26 28 31 37 42 48 54 51 40 36 34 32 38 37 33 28 28 37 41 41 43 41 40 42 43 37 32 28
27 33 29 20 16 9 2 1 0 6 9 10 14 17 22 26 29 29 36 39 42 47 49 47 38 34 33 41 42 41 34 32 33 36 38 40 39 39 37 35 36 37 30
26 34 29 21 13 3 5 3 4 8 10 9 13 17 21 25 28 30 36 37 36 39 44 45 38 33 38 41 41 41 38 35 35 33 37 38 39 39 38 37 34 35 34
32 32 26 15 11 9 6 2 6 9 11 9 13 18 23 24 26 32 35 35 33 32 40 42 35 35 39 41 41 41 42 43 39 34 35 36 44 44 41 39 36 32 31
36 29 19 19 15 10 7 6 11 13 11 8 14 18 22 25 28 33 32 31 34 32 35 36 31 36 43 41 42 45 47 43 38 36 37 38 48 49 47 38 36 33 29
32 27 22 19 14 8 4 8 12 16 10 9 16 18 21 25 29 33 34 33 33 31 27 29 34 39 49 50 47 49 57 47 45 39 45 46 47 46 37 40 35 29 27
28 25 24 17 8 6 5 6 12 16 12 14 19 21 25 24 28 32 36 35 35 32 28 30 37 41 44 42 44 46 51 50 48 53 48 41 38 36 34 31 31 25 26
28 25 18 12 7 4 5 4 8 14 16 18 25 21 25 28 31 30 33 36 33 29 30 33 40 41 45 50 52 53 58 60 59 53 43 40 39 38 32 32 29 28 29
30 24 18 10 3 2 5 5 8 13 18 23 21 26 28 31 33 33 32 33 35 30 29 35 45 46 46 49 49 56 61 54 40 43 35 36 40 37 42 28 29 27 31
Wind_Direction_850mb
231 235 237 239 241 243 244 246 242 241 238 226 224 232 243 258 274 292 301 307 310 306 308 310 311 313 314 314 314 316 317 316 316 316 314 318 311 308 306 320 304 299 300
250 247 248 241 244 245 246 244 238 227 221 219 227 232 249 272 286 294 311 313 311 310 314 317 317 318 319 320 320 321 320 316 321 315 319 320 324 282 312 324 314 302 304
269 261 253 245 242 242 242 240 225 218 216 217 221 236 264 278 293 303 309 309 314 318 320 324 326 327 329 325 326 328 331 330 332 325 307 313 287 310 326 324 316 304 304
280 251 245 237 236 235 233 231 220 217 211 205 201 242 283 311 311 310 310 315 319 324 329 333 336 337 333 329 337 341 338 332 327 330 326 308 300 299 304 309 317 313 309
81 195 203 218 219 214 207 202 200 192 190 193 253 283 313 309 300 305 312 318 324 331 337 341 342 341 340 341 341 340 336 332 328 325 321 317 315 311 291 294 310 312 307
74 162 175 167 158 155 157 161 169 172 190 232 275 272 282 286 302 311 319 325 334 339 347 349 346 348 353 351 347 345 345 341 334 330 324 321 314 311 303 293 302 309 317
87 123 143 146 145 147 149 151 161 187 200 253 274 293 289 304 315 318 329 335 339 344 356 349 353 354 357 354 358 358 353 348 342 338 333 326 321 320 315 310 307 304 313
118 131 136 148 151 151 157 165 170 242 323 298 303 304 319 317 319 331 337 335 339 344 339 349 355 352 357 354 354 358 357 358 354 347 340 334 332 324 323 316 310 307 308
144 147 154 153 155 158 156 144 119 360 334 337 336 327 319 335 338 335 335 333 328 323 329 339 351 351 354 358 359 2 0 358 359 356 350 346 342 338 325 323 314 305 297
157 156 157 165 162 154 150 147 34 5 343 333 332 341 351 346 341 342 333 326 324 320 319 331 338 351 353 353 353 1 3 5 7 3 3 351 346 347 344 326 319 314 294
170 167 172 167 163 161 130 338 349 357 354 355 2 358 343 347 347 342 335 324 322 321 317 327 332 340 349 347 352 355 358 359 1 5 7 4 357 353 356 347 331 325 316
176 178 175 176 172 174 61 341 356 13 4 2 356 353 358 359 358 349 340 334 324 314 317 325 327 330 334 335 345 349 350 355 357 1 359 0 2 6 357 352 353 334 323
177 176 182 183 187 195 296 357 14 357 359 3 1 357 1 4 2 357 353 346 344 347 332 325 322 325 329 331 329 341 344 348 351 356 353 352 354 358 4 4 2 353 351
183 182 188 191 196 234 225 15 10 16 358 351 355 354 355 358 1 2 358 356 352 352 343 333 325 326 326 328 325 326 337 339 345 350 352 353 348 349 349 360 4 7 7
186 189 191 192 200 185 172 16 360 349 332 342 352 345 346 348 354 1 5 8 7 360 352 336 326 325 330 337 330 328 332 336 338 342 348 346 348 348 357 350 359 7 8
192 189 192 197 195 199 224 283 332 335 359 342 344 343 341 344 350 355 3 5 9 2 346 332 332 341 350 346 346 342 344 339 335 340 341 345 347 352 354 4 6 7 2
191 189 196 201 205 231 258 302 331 18 6 5 357 340 342 346 346 352 352 360 5 7 5 0 358 355 354 349 346 333 334 343 341 338 338 339 343 344 348 355 358 357 1
189 188 197 198 208 211 292 345 57 16 6 7 359 350 356 349 345 346 349 355 1 6 7 4 359 358 358 355 356 350 342 344 341 342 339 341 342 342 341 342 347 350 349
187 192 191 189 186 173 177 307 15 351 352 7 359 351 345 345 347 345 348 349 353 1 6 4 355 355 355 355 356 0 4 349 343 341 339 337 340 341 342 340 337 331 338
182 181 177 176 169 208 136 76 347 352 349 1 2 348 342 344 347 345 343 339 341 351 359 0 4 2 5 358 357 359 357 350 343 342 336 338 337 336 335 334 333 334 335
168 168 165 169 166 141 103 38 12 357 353 6 357 350 347 346 345 348 338 333 330 335 347 354 359 358 360 359 355 353 350 344 341 339 338 336 339 338 335 329 326 326 323
162 163 169 159 147 115 81 46 13 358 356 359 353 346 352 349 354 355 347 339 335 330 336 345 349 353 357 353 349 350 349 343 341 334 332 332 338 341 337 328 321 316 316
164 164 164 151 132 117 75 45 22 4 5 357 352 353 348 349 347 347 347 348 344 336 327 333 339 340 349 349 345 342 350 347 341 335 328 326 329 337 341 335 334 328 324
167 162 153 146 132 93 41 41 24 16 15 350 345 343 355 357 353 349 340 334 334 333 327 329 334 334 337 339 339 338 337 335 331 327 326 328 334 330 334 343 340 343 336
161 153 151 148 130 68 350 4 3 7 356 346 347 349 357 358 356 343 348 349 342 332 327 330 333 334 333 335 335 335 331 325 323 323 331 337 338 338 335 337 342 343 340
161 164 163 153 153 330 329 339 342 351 348 354 0 359 356 354 348 344 342 346 348 338 338 338 336 336 333 336 333 327 325 332 337 342 343 338 336 339 338 336 342 345 345